Home   Weather   Annapolis   Past weeks

Flag for USA Past Weather in Annapolis, Maryland, USA — Yesterday and Last 2 Weeks

Now
68 °F

Overcast.


Feels Like: 68 °F
Forecast: 63 / 72 °F
Wind: 5 mph from Northwest

Location: Annapolis - United States Naval Academy

Current Time: Sep 27, 2016 at 8:15:35 AM

Latest Report: Sep 27, 2016 at 6:54 AM


Visibility: 9 mi

Pressure: 29.94 "Hg

Humidity: 93%

Dew Point: 66 °F

Location of AnnapolisLocation

Past Weather in Annapolis — Graph

°F

Annapolis Temperature Yesterday

Maximum temperature yesterday: 71 °F (at 3:54 PM)
Minimum temperature yesterday: 61 °F (at 4:54 AM)
Average temperature yesterday: 68 °F

High & Low Weather Summary for the Past Weeks

 TemperatureHumidityPressure
High86 °F (Sep 14, 4:54 PM)97% (Sep 27, 4:54 AM)30.31 "Hg (Sep 27, 4:54 AM)
Low61 °F (Sep 25, 6:54 AM)38% (Sep 25, 3:54 PM)29.94 "Hg (Sep 27, 5:54 AM)
Average73 °F74%30.12 "Hg
* Reported Sep 12 6:54 AM — Sep 27 6:54 AM, Annapolis, Weather by CustomWeather, © 2016

Note: Actual official high and low records may vary slightly from our data, if they occured in-between our weather recording intervals... More about our weather records

Advertising

Annapolis Weather History for the Previous 24 Hours

Scroll right to see more
 ConditionsComfort  
Time TempWeatherWind HumidityBarometerVisibility
6:54 AM
Tue, Sep 27
68 °FOvercast.5 mph93%29.94 "Hg9 mi
5:54 AM68 °FLight rain. Fog.3 mph93%29.94 "Hg5 mi
4:54 AM67 °FLight rain. Mostly cloudy.No wind97%29.94 "Hg7 mi
3:59 AM67 °FRain. Fog.6 mph93%29.94 "Hg3 mi
2:54 AM67 °FOvercast.No wind87%29.94 "Hg10 mi
2:01 AM67 °FOvercast.No wind87%29.94 "Hg10 mi
12:54 AM66 °FOvercast.3 mph90%29.96 "Hg10 mi
11:54 PM
Mon, Sep 26
67 °FPassing clouds.7 mph85%29.98 "Hg10 mi
10:54 PM68 °FLight rain. Passing clouds.8 mph84%29.98 "Hg10 mi
9:54 PM71 °FLight rain. Mostly cloudy.8 mph68%30.01 "Hg10 mi
8:54 PM71 °FOvercast.12 mph63%30.03 "Hg10 mi
7:54 PM70 °FOvercast.6 mph66%30.04 "Hg10 mi
6:54 PM71 °FOvercast.9 mph63%30.03 "Hg10 mi
5:54 PM71 °FOvercast.13 mph63%30.02 "Hg10 mi
4:54 PM71 °FOvercast.9 mph63%30.03 "Hg10 mi
3:54 PM71 °FOvercast.13 mph59%30.05 "Hg10 mi
2:54 PM70 °FOvercast.9 mph64%30.08 "Hg10 mi
1:54 PM69 °FOvercast.7 mph70%30.10 "Hg10 mi
12:54 PM69 °FOvercast.13 mph66%30.12 "Hg10 mi
11:54 AM69 °FMostly cloudy.10 mph66%30.14 "Hg10 mi
10:54 AM69 °FOvercast.10 mph66%30.15 "Hg10 mi
9:54 AM68 °FOvercast.15 mph70%30.14 "Hg10 mi
9:01 AM68 °FMore clouds than sun.9 mph76%30.14 "Hg10 mi
Weather by CustomWeather, © 2016

See weather overviewHow to use our weather pages